Location: Mountain Grove
(34.0887°N, 86.6172°W)
Time: 22:08:08
(UTC+00:00)

Cosmos 1603 - Pass Details

Date: 14 July 2020
Orbit: 830 x 861 km, 71.0° (Epoch: 08 August)

Event Time Altitude Azimuth Distance (km) Brightness Sun altitude
Exits shadow 04:32:01 55° 25° (NNE) 1,017 4.2 -31.1°
Drops below altitude 10° 04:36:23 10° 22° (NNE) 2,485 6.7 -31.4°
Sets 04:38:51 0° 22° (NNE) 3,429 7.5 -31.6°
